Wind_Speed
16 17 17 17 10 11 15 10 10 13 11 14 12 14 13 11 4 2 6 2 7 14 13 13 15 12 9 9 11 11 10 9 8 9 11 11 12 12 12 11 11 13 15 16 18 16 13 7 4
15 16 15 15 13 17 19 16 13 12 13 12 15 15 12 13 9 5 4 1 4 13 14 13 14 13 10 9 10 10 9 9 9 11 11 12 12 12 12 12 12 13 15 15 18 13 11 8 4
13 15 17 10 15 24 12 16 11 16 12 13 13 15 13 12 10 6 5 4 4 9 14 14 14 12 10 10 10 9 8 8 9 11 11 12 12 13 13 12 12 13 14 13 14 14 10 8 5
13 14 17 17 16 14 19 6 16 16 13 15 14 13 15 13 10 7 6 5 5 8 16 16 16 13 10 10 9 8 7 8 9 11 11 11 12 12 12 12 12 13 12 13 9 10 9 8 6
12 15 13 14 18 17 13 20 11 16 16 15 16 15 14 15 12 9 7 6 5 9 17 18 17 14 12 10 9 7 6 7 8 9 10 10 10 11 12 12 13 13 11 10 9 10 8 7 6
14 14 9 13 13 19 18 13 21 17 17 16 15 17 15 14 15 11 10 8 7 10 16 19 18 15 13 12 10 8 6 6 8 9 9 10 11 11 14 12 13 13 12 11 11 11 9 6 6
15 15 12 16 12 6 16 19 18 24 20 17 15 14 16 14 13 12 12 10 10 12 15 20 19 17 15 14 12 9 7 6 7 8 8 10 11 11 14 13 13 15 14 12 9 13 10 8 6
13 14 17 15 10 8 12 7 21 25 24 22 15 11 14 15 12 13 13 12 12 14 17 20 20 18 16 15 13 11 9 8 7 7 7 8 10 10 13 13 13 14 15 14 12 11 10 8 6
11 10 7 8 5 6 8 9 10 21 27 29 19 15 15 15 16 14 13 13 14 16 18 22 22 19 18 16 13 12 11 9 8 7 7 8 9 7 8 10 11 13 14 14 13 10 6 7 6
9 9 10 14 10 8 7 8 7 9 19 26 24 19 15 14 13 12 11 12 13 17 18 23 23 21 19 19 15 11 10 10 9 9 8 8 9 9 7 8 10 10 12 14 12 10 7 7 7
7 8 11 11 11 8 8 6 8 7 13 20 23 23 19 15 18 11 12 10 6 9 17 23 24 22 20 20 17 13 10 8 9 9 9 9 9 10 8 8 8 9 10 12 11 9 7 7 6
4 7 11 13 13 10 8 7 5 6 10 17 22 24 18 17 18 18 14 12 8 6 12 19 24 24 22 21 20 17 13 10 10 9 9 9 9 11 11 10 10 9 10 11 11 11 10 9 8
3 5 8 10 13 15 12 9 7 5 8 12 19 20 19 19 18 20 17 15 13 10 8 13 22 24 23 22 20 20 18 15 12 12 11 10 10 10 12 14 13 11 12 13 13 12 11 10 9
7 7 7 5 6 12 9 14 11 11 9 12 15 19 18 18 22 23 17 16 16 19 16 12 17 22 23 23 23 21 21 19 16 15 13 12 11 11 12 12 14 14 14 14 14 13 12 11 11
6 6 6 7 2 4 11 13 18 13 12 10 17 16 18 17 17 18 19 17 15 19 17 15 16 19 20 22 24 22 23 23 21 19 17 15 13 12 12 12 13 16 16 16 15 15 15 15 14
5 6 3 5 4 1 10 10 17 18 15 12 15 19 22 18 14 11 17 18 19 18 20 18 21 21 21 20 21 22 23 25 26 23 21 19 17 16 14 13 13 15 16 17 17 17 17 16 16
7 3 5 5 6 0 4 8 12 17 18 17 16 19 19 25 32 28 14 17 17 17 16 16 30 16 20 19 20 21 21 25 26 26 25 23 21 19 18 17 16 15 16 17 18 18 18 18 18
6 5 6 5 7 5 1 7 5 12 13 17 19 21 20 23 28 32 26 25 21 21 20 19 19 33 21 19 24 19 23 22 25 29 26 27 25 22 20 19 20 19 18 17 17 18 19 19 20
6 4 4 2 6 4 5 3 4 7 13 15 18 19 21 22 22 23 30 25 26 25 23 21 20 21 21 34 15 28 28 27 26 29 33 28 24 29 28 22 22 23 20 18 18 19 18 19 19
7 7 5 1 3 4 7 7 5 2 5 12 15 17 19 21 22 24 26 29 30 29 27 27 26 26 25 24 32 28 23 37 26 28 27 33 29 33 25 21 25 24 24 22 21 20 19 18 19
5 12 8 4 3 6 5 2 6 7 6 2 6 11 15 18 21 24 28 29 32 33 34 34 34 32 31 29 27 26 27 24 36 31 32 29 34 33 28 31 25 28 26 25 24 23 21 21 21
6 15 7 4 6 3 9 1 6 6 5 3 2 4 8 12 17 22 25 27 29 29 29 30 29 30 30 31 29 29 28 25 25 21 26 32 39 30 26 28 23 30 30 26 24 24 23 25 24
11 11 4 1 5 4 7 5 5 10 7 3 5 5 7 10 12 16 20 23 26 27 30 29 28 28 29 31 30 29 30 29 24 22 22 27 30 39 32 38 29 35 27 26 27 27 25 25 27
16 7 2 3 3 3 5 6 4 11 13 8 8 10 12 14 16 19 21 23 24 26 28 29 32 31 29 29 29 30 29 30 30 25 23 22 20 25 24 24 37 30 34 33 30 28 32 28 27
13 9 2 2 1 1 4 4 5 7 9 9 9 11 14 17 18 20 21 23 25 27 28 29 29 32 34 34 33 30 28 25 25 25 24 23 22 22 20 24 29 29 23 40 32 28 35 37 40
14 13 4 4 3 4 5 4 3 4 6 8 12 14 17 19 21 22 22 22 23 24 25 27 30 31 33 35 37 36 34 31 28 24 28 25 24 23 23 20 22 20 19 14 36 24 23 28 36
10 10 6 1 3 3 2 5 8 7 7 10 14 15 14 15 16 18 20 22 22 22 23 25 27 30 33 35 36 36 36 36 33 32 31 29 27 25 23 23 20 20 21 25 22 32 21 25 27
7 9 4 5 4 3 2 5 4 2 8 12 11 10 9 11 17 15 12 14 18 20 22 24 25 26 28 31 35 37 37 34 31 28 28 30 28 28 28 24 22 21 19 21 25 26 26 27 30
7 5 4 2 0 2 4 1 2 3 11 8 6 7 12 13 16 21 14 12 12 12 13 14 16 18 22 26 29 32 35 35 33 29 26 26 27 29 30 27 26 23 21 21 24 26 28 28 24
5 5 5 2 2 3 3 7 4 10 12 6 4 9 12 13 16 20 21 15 11 9 6 5 5 6 10 15 20 25 27 30 33 31 27 25 27 29 28 27 27 27 26 24 25 27 27 29 26
Wind_Direction
251 243 237 229 232 234 235 231 216 200 202 208 214 206 217 210 196 255 338 125 172 166 193 190 188 188 194 179 171 167 166 165 175 171 170 168 161 157 161 155 147 149 143 143 156 167 179 177 161
258 247 234 228 227 229 236 225 208 201 201 203 208 209 212 218 230 265 302 237 155 174 186 190 189 188 194 188 178 173 174 174 172 171 173 165 166 165 164 159 159 158 150 151 178 180 188 195 192
257 246 232 216 232 235 251 238 216 216 208 198 202 197 201 216 220 240 248 260 232 183 184 188 192 183 194 190 185 182 181 180 176 172 173 168 166 167 168 165 167 167 154 162 174 189 197 201 195
248 239 231 223 233 243 230 264 222 221 214 206 200 206 207 208 213 221 236 237 222 191 186 196 191 194 193 192 189 188 187 187 181 175 176 173 170 173 172 170 172 173 170 161 163 185 198 204 201
263 243 228 231 240 243 242 224 221 213 220 214 206 204 210 207 218 217 222 211 218 205 192 198 196 195 192 189 188 191 192 190 183 183 181 177 172 175 177 176 177 170 178 185 175 177 182 191 189
267 254 243 248 254 256 243 232 209 210 204 207 211 211 210 211 217 215 207 208 215 218 200 197 197 198 190 181 185 188 191 189 191 191 185 185 176 173 176 179 173 170 178 183 165 163 163 175 181
269 259 246 256 260 292 252 235 217 211 213 200 205 216 213 209 214 217 210 212 214 214 205 199 198 198 192 180 184 183 186 185 196 196 196 197 186 172 180 178 174 170 178 174 178 165 166 172 171
265 259 261 258 252 245 253 258 229 218 216 211 203 212 209 212 216 219 217 215 211 216 203 201 199 198 197 187 184 183 182 176 188 196 204 205 202 190 179 181 178 179 179 187 182 175 172 172 170
268 246 253 246 258 239 248 233 241 227 222 222 225 221 218 220 222 223 216 215 208 209 206 200 199 198 199 197 191 185 181 175 175 181 194 199 208 202 188 189 191 189 185 191 185 188 170 167 184
259 250 246 248 246 205 187 207 234 230 223 226 230 224 219 212 203 210 211 220 220 210 207 201 199 201 201 202 199 191 184 178 177 175 183 198 202 206 201 188 200 199 198 192 198 197 187 200 207
265 236 243 242 237 207 207 229 218 211 216 217 213 216 215 207 211 184 182 181 172 223 209 206 202 203 205 203 205 201 202 193 190 183 178 190 198 206 206 209 208 204 207 202 205 219 223 229 241
278 254 243 240 238 213 189 213 228 190 219 214 206 209 211 202 207 209 220 203 211 222 224 211 206 206 208 206 206 210 205 206 210 197 189 188 198 201 205 211 212 208 213 214 215 217 225 233 240
344 289 277 263 253 244 220 231 232 223 207 220 205 204 200 209 210 201 194 203 221 210 192 213 215 212 215 214 211 215 214 210 213 213 205 198 199 204 210 208 214 212 210 212 218 228 229 235 246
19 9 4 329 285 245 224 220 221 225 199 214 199 192 200 200 203 192 179 181 199 207 219 218 216 217 221 221 218 219 220 216 216 217 216 214 211 208 212 218 221 221 221 222 224 226 235 241 244
37 43 34 30 50 199 203 217 218 214 213 205 209 188 194 204 204 206 199 192 200 202 214 221 218 222 228 232 230 224 223 224 219 219 217 221 223 221 225 224 227 229 229 229 230 232 232 235 241
50 28 19 20 46 258 190 218 213 216 218 221 208 219 214 202 207 212 225 214 206 209 208 215 214 218 223 231 234 233 229 229 227 224 220 217 224 228 227 231 235 236 237 237 237 238 240 244 249
44 28 20 330 3 323 202 219 211 212 218 229 232 225 217 220 228 236 231 235 222 228 234 247 265 210 226 229 234 237 237 235 233 230 225 225 224 228 231 234 238 239 239 242 243 245 248 250 252
25 35 17 28 7 28 159 205 223 224 221 226 233 236 237 230 226 225 221 238 234 238 243 251 246 256 238 223 242 240 250 240 242 242 231 229 236 235 237 241 244 245 243 243 245 246 247 249 253
20 29 26 7 354 26 71 136 195 209 217 232 238 236 240 244 241 232 214 233 238 241 244 245 247 258 265 247 244 261 253 232 240 248 243 250 243 242 242 239 249 251 253 252 250 251 255 258 260
20 2 342 263 346 120 93 85 91 135 223 226 230 235 239 243 242 244 242 245 246 246 249 251 247 252 263 269 261 266 255 236 249 242 246 237 254 253 258 235 246 251 250 251 253 258 262 265 268
334 350 336 264 247 181 138 133 105 97 100 137 242 249 250 250 251 249 254 255 256 255 252 254 257 259 261 260 259 258 257 259 241 238 242 241 238 256 246 249 250 251 251 251 254 257 260 264 267
335 336 337 304 178 206 204 239 206 148 124 138 185 252 269 268 264 262 261 263 264 264 264 261 256 257 258 259 258 256 252 253 272 252 241 244 239 244 242 241 245 249 248 251 252 255 258 260 264
346 339 358 330 192 190 215 260 215 203 204 216 239 253 262 270 271 271 271 267 267 266 263 262 260 255 254 255 255 257 258 257 253 258 265 278 246 234 280 252 242 242 246 245 251 254 262 268 270
358 348 14 80 153 229 224 230 200 216 230 252 279 285 286 281 277 276 273 270 268 267 265 261 259 258 256 256 256 257 259 259 257 250 247 249 259 247 257 244 235 242 247 242 246 251 257 261 271
4 8 274 213 240 359 247 274 267 228 231 260 285 297 302 301 297 288 280 273 269 263 261 261 258 256 258 259 258 256 255 256 253 248 249 249 251 254 254 255 238 255 270 244 234 257 265 260 261
8 25 40 309 325 327 283 261 266 258 252 299 314 320 323 321 315 308 299 287 275 266 260 260 259 254 252 252 253 254 252 250 251 249 244 247 249 252 254 253 251 252 247 239 241 249 267 270 268
352 7 12 320 298 279 271 293 295 276 295 323 326 323 329 329 327 315 303 295 287 279 270 264 260 257 254 249 248 249 250 249 248 248 248 246 243 246 248 248 249 250 251 238 262 256 282 277 286
360 355 1 355 337 319 310 290 294 313 334 327 319 329 342 352 357 344 325 304 290 284 278 275 268 259 255 254 251 246 246 246 246 244 243 241 239 237 241 241 241 245 250 261 272 271 267 261 265
335 345 348 339 311 325 316 26 297 305 334 321 311 329 343 345 354 8 5 352 329 308 291 282 275 269 260 254 250 249 247 246 245 242 239 235 233 235 238 237 238 242 248 258 265 269 269 272 272
334 321 330 287 266 234 254 281 283 329 332 312 313 337 347 353 359 3 10 14 10 4 359 328 311 284 270 260 248 243 243 242 241 241 241 238 233 231 234 234 238 247 257 262 267 265 263 260 271
Height
3148 3149 3151 3154 3161 3154 3152 3153 3151 3152 3153 3153 3155 3156 3158 3158 3160 3165 3161 3159 3159 3159 3161 3163 3165 3167 3169 3169 3170 3172 3173 3173 3174 3175 3176 3177 3178 3178 3180 3181 3182 3184 3186 3187 3187 3186 3187 3187 3188
3147 3147 3149 3151 3153 3150 3149 3151 3151 3151 3151 3151 3152 3154 3156 3158 3159 3160 3161 3160 3159 3159 3161 3163 3165 3167 3169 3170 3171 3172 3173 3173 3174 3174 3176 3176 3178 3179 3180 3181 3183 3184 3186 3187 3187 3187 3187 3188 3188
3143 3145 3148 3148 3146 3147 3150 3150 3152 3150 3150 3150 3152 3153 3154 3157 3158 3159 3160 3160 3160 3160 3162 3163 3165 3167 3169 3170 3171 3173 3173 3173 3174 3175 3176 3176 3178 3179 3180 3181 3182 3184 3186 3187 3187 3187 3188 3188 3189
3142 3144 3145 3141 3143 3144 3147 3149 3147 3149 3150 3150 3150 3152 3153 3155 3156 3157 3158 3159 3159 3160 3161 3163 3165 3167 3169 3170 3172 3173 3174 3174 3175 3175 3176 3177 3177 3179 3179 3181 3182 3184 3185 3186 3187 3187 3188 3189 3189
3140 3141 3141 3139 3141 3140 3142 3144 3146 3147 3149 3149 3149 3150 3152 3153 3154 3155 3157 3157 3158 3159 3160 3162 3165 3167 3168 3170 3172 3173 3174 3174 3175 3176 3176 3177 3177 3178 3179 3181 3182 3183 3185 3185 3186 3187 3188 3188 3189
3140 3141 3140 3140 3141 3138 3140 3141 3142 3145 3146 3147 3149 3150 3149 3151 3152 3154 3155 3156 3157 3158 3159 3161 3163 3166 3168 3169 3171 3172 3174 3175 3175 3176 3176 3177 3177 3178 3179 3180 3181 3183 3185 3185 3185 3186 3187 3188 3188
3137 3138 3138 3138 3138 3139 3138 3138 3139 3141 3145 3145 3147 3148 3148 3149 3151 3152 3152 3154 3155 3156 3158 3160 3162 3165 3167 3168 3170 3171 3173 3174 3176 3176 3177 3177 3177 3178 3179 3180 3181 3181 3183 3185 3185 3186 3187 3188 3188
3134 3135 3134 3134 3135 3137 3136 3136 3136 3138 3141 3143 3143 3145 3146 3147 3149 3149 3151 3151 3153 3154 3156 3159 3161 3164 3166 3167 3169 3171 3172 3173 3174 3176 3177 3177 3178 3179 3180 3180 3181 3182 3183 3184 3184 3185 3186 3187 3188
3132 3133 3133 3132 3133 3133 3133 3134 3133 3135 3137 3138 3141 3142 3145 3146 3147 3147 3149 3150 3151 3153 3154 3157 3160 3162 3165 3167 3169 3170 3171 3172 3173 3175 3176 3177 3178 3179 3181 3181 3182 3182 3182 3183 3184 3184 3186 3187 3188
3129 3130 3130 3129 3130 3131 3132 3133 3132 3134 3133 3134 3136 3140 3143 3144 3145 3145 3147 3148 3149 3151 3152 3155 3158 3161 3163 3166 3168 3170 3171 3171 3172 3173 3174 3176 3177 3179 3180 3181 3182 3183 3183 3183 3184 3184 3185 3186 3186
3126 3127 3127 3127 3128 3130 3131 3132 3131 3131 3131 3132 3134 3138 3140 3141 3142 3143 3145 3146 3147 3149 3151 3153 3156 3159 3161 3164 3166 3169 3170 3171 3172 3173 3173 3174 3176 3177 3179 3180 3181 3182 3183 3183 3183 3183 3184 3184 3185
3125 3124 3124 3124 3125 3128 3130 3131 3130 3129 3131 3131 3132 3135 3138 3139 3141 3141 3144 3144 3146 3148 3149 3152 3154 3157 3160 3161 3164 3167 3168 3170 3172 3172 3173 3173 3174 3176 3177 3178 3179 3180 3182 3183 3183 3183 3183 3183 3183
3124 3125 3123 3122 3123 3125 3128 3129 3130 3128 3128 3128 3130 3131 3134 3135 3137 3139 3140 3142 3144 3146 3148 3150 3152 3155 3158 3160 3162 3164 3166 3168 3169 3171 3172 3172 3173 3174 3176 3177 3178 3179 3180 3180 3181 3182 3182 3182 3183
3124 3124 3123 3121 3120 3122 3125 3126 3128 3127 3125 3125 3127 3127 3130 3131 3132 3133 3134 3137 3142 3145 3146 3148 3150 3153 3155 3157 3160 3162 3163 3165 3167 3169 3170 3171 3172 3172 3174 3175 3176 3177 3178 3179 3179 3180 3181 3181 3181
3125 3125 3123 3121 3119 3119 3121 3123 3123 3125 3125 3123 3124 3125 3127 3129 3131 3132 3132 3135 3138 3140 3143 3144 3147 3149 3151 3154 3156 3158 3160 3163 3164 3167 3167 3169 3171 3171 3171 3172 3174 3175 3175 3176 3177 3178 3178 3178 3178
3126 3125 3125 3121 3120 3120 3121 3120 3120 3123 3123 3123 3124 3124 3124 3127 3129 3130 3133 3134 3136 3136 3138 3139 3141 3144 3147 3150 3152 3155 3157 3159 3161 3162 3164 3165 3167 3168 3169 3170 3171 3172 3173 3174 3175 3175 3176 3176 3176
3125 3126 3125 3123 3120 3120 3121 3119 3119 3120 3121 3122 3122 3122 3123 3124 3127 3130 3132 3133 3134 3136 3136 3138 3133 3139 3144 3145 3148 3151 3153 3154 3156 3155 3160 3162 3163 3164 3166 3166 3168 3169 3170 3171 3171 3172 3173 3173 3173
3126 3125 3124 3123 3122 3119 3119 3118 3118 3118 3119 3120 3120 3120 3121 3122 3124 3125 3129 3131 3132 3133 3134 3134 3135 3133 3135 3140 3143 3145 3148 3149 3152 3154 3153 3158 3160 3161 3162 3163 3164 3166 3167 3168 3169 3169 3169 3169 3169
3127 3125 3124 3124 3122 3121 3119 3118 3116 3116 3117 3117 3118 3118 3118 3119 3120 3121 3124 3127 3128 3129 3130 3132 3131 3130 3131 3134 3133 3135 3140 3143 3146 3149 3151 3150 3154 3156 3157 3159 3160 3162 3164 3165 3166 3166 3167 3167 3167
3127 3125 3124 3123 3122 3122 3121 3119 3117 3116 3115 3115 3115 3115 3115 3116 3118 3119 3121 3122 3124 3125 3126 3127 3129 3130 3130 3129 3133 3133 3135 3136 3141 3143 3147 3148 3147 3150 3151 3152 3154 3156 3159 3160 3161 3162 3163 3163 3163
3127 3125 3122 3122 3122 3122 3122 3122 3119 3118 3116 3115 3115 3114 3114 3114 3115 3116 3115 3116 3117 3119 3121 3122 3122 3124 3125 3127 3128 3130 3131 3130 3133 3135 3140 3143 3144 3145 3148 3150 3150 3151 3153 3155 3157 3157 3158 3158 3159
3127 3123 3120 3119 3121 3122 3121 3120 3119 3117 3117 3116 3115 3115 3114 3113 3112 3112 3112 3112 3112 3113 3113 3115 3117 3117 3118 3120 3123 3125 3127 3127 3128 3127 3132 3135 3137 3140 3137 3145 3144 3146 3147 3150 3151 3152 3153 3152 3153
3128 3122 3120 3119 3119 3120 3121 3122 3116 3116 3116 3116 3115 3114 3113 3112 3110 3109 3107 3107 3106 3106 3107 3108 3109 3111 3112 3114 3116 3119 3121 3123 3124 3126 3125 3127 3129 3132 3134 3137 3138 3141 3141 3143 3145 3147 3148 3148 3148
3127 3123 3120 3119 3119 3120 3118 3120 3115 3115 3115 3115 3114 3112 3110 3109 3107 3105 3103 3101 3100 3100 3099 3100 3101 3103 3105 3107 3109 3111 3113 3115 3117 3120 3120 3122 3122 3127 3127 3128 3131 3135 3135 3137 3138 3140 3140 3142 3141
3128 3124 3122 3120 3119 3117 3117 3118 3114 3113 3112 3112 3111 3109 3107 3104 3102 3099 3096 3094 3093 3092 3091 3092 3092 3093 3095 3097 3099 3103 3106 3108 3110 3113 3115 3117 3118 3120 3122 3123 3120 3126 3126 3127 3131 3133 3133 3133 3133
3129 3127 3126 3121 3119 3119 3116 3116 3113 3111 3111 3110 3108 3106 3103 3100 3096 3092 3089 3087 3085 3084 3084 3083 3084 3085 3086 3087 3089 3092 3095 3099 3103 3106 3109 3111 3114 3116 3116 3118 3118 3120 3120 3120 3122 3123 3125 3127 3125
3131 3130 3128 3127 3124 3122 3116 3115 3112 3109 3109 3108 3106 3104 3101 3098 3093 3088 3084 3080 3078 3077 3077 3077 3076 3075 3076 3078 3080 3082 3085 3089 3093 3097 3100 3104 3108 3110 3111 3112 3114 3115 3116 3117 3117 3116 3119 3119 3120
3134 3133 3130 3128 3124 3117 3114 3113 3112 3110 3109 3107 3105 3102 3100 3096 3092 3085 3080 3076 3073 3070 3069 3068 3068 3067 3068 3068 3070 3073 3076 3080 3085 3089 3092 3096 3100 3102 3104 3107 3109 3110 3111 3112 3113 3113 3114 3112 3114
3135 3132 3131 3129 3128 3125 3121 3113 3111 3110 3109 3106 3103 3101 3098 3094 3090 3084 3077 3072 3069 3066 3065 3063 3061 3060 3060 3061 3062 3065 3068 3072 3077 3081 3084 3088 3092 3095 3097 3100 3102 3104 3105 3107 3108 3108 3108 3108 3105
3134 3132 3131 3130 3128 3125 3124 3115 3110 3109 3106 3104 3102 3100 3097 3093 3089 3083 3077 3071 3067 3064 3062 3060 3059 3057 3055 3055 3056 3058 3061 3065 3068 3073 3078 3081 3084 3088 3091 3094 3095 3097 3099 3100 3101 3101 3101 3102 3101